Volver al catálogo

CZ-4C DEB

ActivoLEO
NORAD 43338·DEBRIS·🇨🇳 China

Lanzado Apr 10, 2018 desde Jiuquan Satellite Launch Center

Loading…

Próximos Pases (próximas 24 horas)

TLE

ActualizadoSource: Space-Track

Época: Sep 14, 2026, 07:41 UTC

1 43338U 18034H   26257.32077383 -.00000072  00000-0  24944-4 0  9999
2 43338  63.3917 230.6971 0282825   8.5178 352.0503 13.44727563413846

Sigue CZ-4C DEB en tiempo real con AllMySat

Download on the App Store